Tracking 29892 objects as of 21-Nov-2024
HD Live streaming from Space Station
objects crossing your sky now

STARLINK-30394

Track STARLINK-30394 now!
10-day predictions
STARLINK-30394 is classified as:


NORAD ID: 57810
Int'l Code: 2023-138C
Perigee: 565.6 km
Apogee: 566.8 km
Inclination: 43.0 °
Period: 95.8 minutes
Semi major axis: 6937 km
RCS: Unknown
Launch date: September 9, 2023
Source: United States (US)
Launch site: AIR FORCE EASTERN TEST RANGE (AFETR)
Your satellite tracking list
Your tracking list is empty




NASA's NSSDC Master Catalog

Two Line Element Set (TLE):
1 57810U 23138C   24325.90973125  .00000472  00000-0  50029-4 0  9993
2 57810  43.0036 290.7723 0000830 276.9869  83.0879 15.02543840 67344
Source of the keplerian elements: AFSPC